This is the latest recevied weather packets stored in our database for station/object I0UVN-10. If no packets are shown the sender has not sent any weather packets the latest 10 day(s).
| Time | Temp. | Humidity | Pressure | Rain* | Wind** | Luminosity | Snow |
|---|---|---|---|---|---|---|---|
| 1788032430 | 29.44° C | 58% | 1020.5 hPa | - | - | - | - |
| 1788031230 | 29.44° C | 56% | 1020.4 hPa | - | - | - | - |
| 1788030030 | 29.44° C | 55% | 1020.2 hPa | - | - | - | - |
| 1788028829 | 29.44° C | 57% | 1019.8 hPa | - | - | - | - |
| 1788027628 | 29.44° C | 58% | 1019.6 hPa | - | - | - | - |
| 1788026428 | 30° C | 57% | 1019.4 hPa | - | - | - | - |
| 1788025228 | 30° C | 56% | 1019.4 hPa | - | - | - | - |
| 1788024025 | 30° C | 56% | 1019.2 hPa | - | - | - | - |
| 1788022825 | 30° C | 56% | 1019.3 hPa | - | - | - | - |
| 1788021624 | 30.56° C | 55% | 1019.4 hPa | - | - | - | - |
| 1788020418 | 30.56° C | 54% | 1019.6 hPa | - | - | - | - |
| 1788019218 | 30.56° C | 53% | 1019.8 hPa | - | - | - | - |
| 1788018018 | 30.56° C | 52% | 1019.9 hPa | - | - | - | - |
| 1788016818 | 31.11° C | 53% | 1020 hPa | - | - | - | - |
| 1788015618 | 30.56° C | 53% | 1020.3 hPa | - | - | - | - |
| 1788014417 | 30.56° C | 55% | 1020.6 hPa | - | - | - | - |
| 1788013217 | 30.56° C | 55% | 1020.7 hPa | - | - | - | - |
| 1788012048 | 30.56° C | 55% | 1020.7 hPa | - | - | - | - |
| 1788012017 | 30.56° C | 55% | 1020.7 hPa | - | - | - | - |
| 1788010848 | 30.56° C | 53% | 1020.8 hPa | - | - | - | - |
| 1788010817 | 30.56° C | 53% | 1020.8 hPa | - | - | - | - |
| 1788009620 | 30.56° C | 53% | 1020.8 hPa | - | - | - | - |
| 1788008417 | 30.56° C | 45% | 1020.8 hPa | - | - | - | - |
| 1788007248 | 30.56° C | 44% | 1020.7 hPa | - | - | - | - |
| 1788007217 | 30.56° C | 44% | 1020.7 hPa | - | - | - | - |
* Rain since midnight (hover to see other rain measurements)
** Current wind speed in m/s (hover to see current wind gust speed)